When you browse on this site, cookies collect data to enhance your experience and personalize the content and advertising you see.
Visit our Privacy Policy to learn more. By continuing to use the site, you agree to this use of cookies and data.
  • In Lithuania
  • List of Countries
  • For 7 days
  • Water Temperature
  • Weather Map
  • Weather Widgets
  • user-avatar
    Login

    Hourly Weather Mendoza

    Today, 17 October, Thursday

    Time Temperature Precipitation Wind Pressure Humidity
    00:00 +13°C° 0 mm 1 mps 699 mmHg 50%
    01:00 +12°C° 0 mm 1 mps 699 mmHg 48%
    02:00 +12°C° 0 mm 1 mps 699 mmHg 49%
    03:00 +11°C° 0 mm 1 mps 699 mmHg 51%
    04:00 +11°C° 0 mm 1 mps 698 mmHg 53%
    05:00 +12°C° 0 mm 1 mps 699 mmHg 49%
    06:00 +13°C° 0 mm 0 mps 700 mmHg 46%
    07:00 +14°C° 0 mm 0 mps 700 mmHg 41%
    08:00 +16°C° 0 mm 1 mps 700 mmHg 37%
    09:00 +19°C° 0 mm 1 mps 700 mmHg 33%
    10:00 +20°C° 0 mm 2 mps 700 mmHg 30%
    11:00 +20°C° 0 mm 2 mps 700 mmHg 28%
    12:00 +21°C° 0 mm 2 mps 700 mmHg 27%
    13:00 +22°C° 0 mm 3 mps 699 mmHg 25%
    14:00 +24°C° 0 mm 3 mps 699 mmHg 25%
    15:00 +24°C° 0 mm 3 mps 699 mmHg 24%
    16:00 +24°C° 0 mm 3 mps 698 mmHg 24%
    17:00 +22°C° 0 mm 3 mps 699 mmHg 27%
    18:00 +20°C° 0 mm 3 mps 699 mmHg 30%
    19:00 +19°C° 0 mm 3 mps 700 mmHg 33%
    20:00 +18°C° 0 mm 2 mps 700 mmHg 35%
    21:00 +18°C° 0 mm 2 mps 700 mmHg 38%
    22:00 +18°C° 0 mm 1 mps 700 mmHg 41%
    23:00 +18°C° 0 mm 1 mps 700 mmHg 42%

    Tomorrow, 18 October, Friday

    Time Temperature Precipitation Wind Pressure Humidity
    00:00 +16°C° 0 mm 1 mps 700 mmHg 43%
    01:00 +16°C° 0 mm 1 mps 700 mmHg 44%
    02:00 +16°C° 0 mm 2 mps 700 mmHg 44%
    03:00 +16°C° 0 mm 2 mps 700 mmHg 45%
    04:00 +16°C° 0 mm 2 mps 700 mmHg 46%
    05:00 +16°C° 0 mm 2 mps 700 mmHg 44%
    06:00 +17°C° 0 mm 2 mps 700 mmHg 42%
    07:00 +18°C° 0 mm 2 mps 701 mmHg 40%
    08:00 +19°C° 0 mm 2 mps 701 mmHg 37%
    09:00 +20°C° 0 mm 2 mps 701 mmHg 35%
    10:00 +22°C° 0 mm 3 mps 701 mmHg 32%
    11:00 +22°C° 0 mm 3 mps 701 mmHg 30%
    12:00 +24°C° 0 mm 3 mps 701 mmHg 28%
    13:00 +25°C° 0 mm 3 mps 700 mmHg 26%
    14:00 +25°C° 0 mm 2 mps 700 mmHg 26%
    15:00 +25°C° 0 mm 2 mps 700 mmHg 25%
    16:00 +26°C° 0 mm 2 mps 700 mmHg 24%
    17:00 +25°C° 0 mm 2 mps 700 mmHg 26%
    18:00 +24°C° 0 mm 2 mps 701 mmHg 27%
    19:00 +23°C° 0 mm 2 mps 701 mmHg 29%
    20:00 +23°C° 0.1 mm 2 mps 701 mmHg 33%
    21:00 +21°C° 0.1 mm 2 mps 702 mmHg 36%
    22:00 +21°C° 0.1 mm 2 mps 702 mmHg 40%
    23:00 +20°C° 0.2 mm 3 mps 701 mmHg 43%

    Day after tomorrow, 19 October, Saturday

    Time Temperature Precipitation Wind Pressure Humidity
    00:00 +19°C° 0.2 mm 4 mps 701 mmHg 46%
    01:00 +19°C° 0.2 mm 5 mps 700 mmHg 49%
    02:00 +18°C° 0 mm 4 mps 700 mmHg 51%
    03:00 +18°C° 0 mm 2 mps 700 mmHg 52%
    04:00 +18°C° 0 mm 1 mps 700 mmHg 54%
    05:00 +19°C° 0 mm 1 mps 700 mmHg 51%
    06:00 +20°C° 0 mm 1 mps 700 mmHg 48%
    07:00 +21°C° 0 mm 1 mps 701 mmHg 45%
    08:00 +21°C° 0 mm 3 mps 701 mmHg 44%
    09:00 +22°C° 0 mm 4 mps 700 mmHg 42%
    10:00 +23°C° 0 mm 5 mps 700 mmHg 41%
    11:00 +25°C° 0 mm 5 mps 700 mmHg 39%
    12:00 +24°C° 0 mm 6 mps 699 mmHg 37%
    13:00 +26°C° 0 mm 7 mps 698 mmHg 36%
    14:00 +26°C° 0 mm 6 mps 698 mmHg 36%
    15:00 +26°C° 0 mm 6 mps 697 mmHg 36%
    16:00 +24°C° 0 mm 6 mps 697 mmHg 37%
    17:00 +23°C° 0.4 mm 5 mps 697 mmHg 41%
    18:00 +22°C° 0.4 mm 5 mps 697 mmHg 44%
    19:00 +21°C° 0.4 mm 4 mps 697 mmHg 48%
    20:00 +20°C° 1.2 mm 4 mps 697 mmHg 51%
    21:00 +20°C° 1.2 mm 3 mps 697 mmHg 54%
    22:00 +19°C° 1.2 mm 3 mps 697 mmHg 57%
    23:00 +18°C° 0.3 mm 2 mps 697 mmHg 60%

    20 October, Sunday

    Time Temperature Precipitation Wind Pressure Humidity
    00:00 +18°C° 0.3 mm 2 mps 697 mmHg 63%
    01:00 +17°C° 0.3 mm 2 mps 697 mmHg 66%
    02:00 +16°C° 0.4 mm 3 mps 697 mmHg 66%
    03:00 +15°C° 0.4 mm 4 mps 697 mmHg 66%
    04:00 +14°C° 0.4 mm 5 mps 698 mmHg 66%
    05:00 +15°C° 0.6 mm 4 mps 698 mmHg 61%
    06:00 +17°C° 0.6 mm 4 mps 699 mmHg 56%
    07:00 +17°C° 0.6 mm 4 mps 700 mmHg 51%
    08:00 +19°C° 0.1 mm 3 mps 700 mmHg 46%
    09:00 +20°C° 0.1 mm 3 mps 700 mmHg 42%
    10:00 +22°C° 0.1 mm 3 mps 700 mmHg 37%
    11:00 +22°C° 0 mm 3 mps 700 mmHg 34%
    12:00 +24°C° 0 mm 3 mps 699 mmHg 32%
    13:00 +25°C° 0 mm 3 mps 699 mmHg 29%
    14:00 +25°C° 0 mm 3 mps 699 mmHg 28%
    15:00 +25°C° 0 mm 3 mps 699 mmHg 27%
    16:00 +26°C° 0 mm 3 mps 698 mmHg 27%
    17:00 +25°C° 0 mm 3 mps 699 mmHg 29%
    18:00 +24°C° 0 mm 3 mps 699 mmHg 30%
    19:00 +22°C° 0 mm 3 mps 700 mmHg 32%
    20:00 +21°C° 0 mm 3 mps 700 mmHg 33%
    21:00 +21°C° 0 mm 3 mps 700 mmHg 34%
    22:00 +20°C° 0 mm 2 mps 700 mmHg 35%
    23:00 +20°C° 0 mm 2 mps 700 mmHg 36%

    21 October, Monday

    Time Temperature Precipitation Wind Pressure Humidity
    00:00 +20°C° 0 mm 1 mps 700 mmHg 37%
    01:00 +19°C° 0 mm 1 mps 699 mmHg 38%
    02:00 +19°C° 0 mm 1 mps 699 mmHg 37%
    03:00 +17°C° 0 mm 2 mps 699 mmHg 36%
    04:00 +17°C° 0 mm 2 mps 699 mmHg 35%
    05:00 +18°C° 0 mm 3 mps 700 mmHg 36%
    06:00 +19°C° 0 mm 3 mps 700 mmHg 37%
    07:00 +20°C° 0 mm 3 mps 701 mmHg 38%
    08:00 +21°C° 0 mm 3 mps 701 mmHg 35%
    09:00 +22°C° 0 mm 3 mps 701 mmHg 33%
    10:00 +24°C° 0 mm 3 mps 701 mmHg 30%
    11:00 +25°C° 0 mm 3 mps 700 mmHg 28%
    12:00 +26°C° 0 mm 3 mps 700 mmHg 27%
    13:00 +26°C° 0 mm 3 mps 699 mmHg 25%
    14:00 +27°C° 0 mm 3 mps 699 mmHg 24%
    15:00 +27°C° 0 mm 2 mps 699 mmHg 23%
    16:00 +27°C° 0 mm 2 mps 698 mmHg 22%
    17:00 +26°C° 0 mm 2 mps 698 mmHg 24%
    18:00 +25°C° 0 mm 2 mps 699 mmHg 26%
    19:00 +25°C° 0 mm 1 mps 699 mmHg 28%
    20:00 +24°C° 0 mm 2 mps 699 mmHg 29%
    21:00 +24°C° 0 mm 2 mps 699 mmHg 30%
    22:00 +23°C° 0 mm 2 mps 699 mmHg 31%
    23:00 +21°C° 0 mm 2 mps 699 mmHg 34%

    22 October, Tuesday

    Time Temperature Precipitation Wind Pressure Humidity
    00:00 +20°C° 0 mm 2 mps 698 mmHg 37%
    01:00 +19°C° 0 mm 2 mps 698 mmHg 40%
    02:00 +19°C° 0 mm 2 mps 698 mmHg 40%
    03:00 +19°C° 0 mm 3 mps 698 mmHg 41%
    04:00 +18°C° 0 mm 3 mps 698 mmHg 41%
    05:00 +19°C° 0 mm 4 mps 698 mmHg 40%
    06:00 +20°C° 0 mm 4 mps 698 mmHg 38%
    07:00 +20°C° 0 mm 5 mps 699 mmHg 36%
    08:00 +21°C° 0 mm 4 mps 699 mmHg 34%
    09:00 +23°C° 0 mm 4 mps 699 mmHg 32%
    10:00 +25°C° 0 mm 4 mps 699 mmHg 30%
    11:00 +26°C° 0 mm 3 mps 698 mmHg 28%
    12:00 +27°C° 0 mm 2 mps 698 mmHg 26%
    13:00 +28°C° 0 mm 2 mps 697 mmHg 25%
    14:00 +28°C° 0 mm 2 mps 697 mmHg 24%
    15:00 +28°C° 0 mm 1 mps 697 mmHg 23%
    16:00 +28°C° 0 mm 1 mps 696 mmHg 22%
    17:00 +27°C° 0 mm 2 mps 696 mmHg 25%
    18:00 +26°C° 0 mm 2 mps 697 mmHg 27%
    19:00 +25°C° 0 mm 3 mps 697 mmHg 29%
    20:00 +25°C° 0 mm 3 mps 697 mmHg 31%
    21:00 +24°C° 0 mm 3 mps 697 mmHg 33%
    22:00 +22°C° 0 mm 4 mps 697 mmHg 35%
    23:00 +22°C° 0 mm 3 mps 697 mmHg 37%
    Show more